0 HST 1 20580U 90037B 25284.26438031 .00008213 00000-0 29437-3 0 9994 2 20580 28.4700 337.3471 0001815 255.3563 104.6831 15.26846741750436 0 ISS (ZARYA) 1 25544U 98067A 25284.17253726 .00010760 00000-0 19735-3 0 9996 2 25544 51.6323 92.2337 0000813 239.6320 120.4589 15.49837675533156 0 CXO 1 25867U 99040B 25283.14864612 .00000910 00000-0 00000-0 0 9992 2 25867 51.8364 124.8711 8250234 310.5442 0.1878 0.37810077 16378